This is the latest recevied weather packets stored in our database for station/object K7FLA. If no packets are shown the sender has not sent any weather packets the latest 10 day(s).
| Time | Temp. | Humidity | Pressure | Rain* | Wind** | Luminosity | Snow |
|---|---|---|---|---|---|---|---|
| 1778190644 | 31.67° C | 29% | 1095.1 hPa | 0 mm | - | 662 W/m² | - |
| 1778190341 | 31.67° C | 28% | 1095.2 hPa | 0 mm | - | 688 W/m² | - |
| 1778190036 | 31.67° C | 27% | 1095.1 hPa | 0 mm | - | 699 W/m² | - |
| 1778189733 | 31.67° C | 26% | 1095.4 hPa | 0 mm | - | 711 W/m² | - |
| 1778189430 | 31.67° C | 29% | 1095.4 hPa | 0 mm | - | 719 W/m² | - |
| 1778189126 | 31.67° C | 31% | 1095.3 hPa | 0 mm | - | 732 W/m² | - |
| 1778188823 | 31.67° C | 28% | 1095.4 hPa | 0 mm | - | 743 W/m² | - |
| 1778188520 | 31.67° C | 28% | 1095.5 hPa | 0 mm | - | 755 W/m² | - |
| 1778188216 | 31.67° C | 28% | 1095.5 hPa | 0 mm | - | 763 W/m² | - |
| 1778187913 | 31.67° C | 30% | 1095.4 hPa | 0 mm | - | 772 W/m² | - |
| 1778187610 | 31.67° C | 31% | 1095.4 hPa | 0 mm | - | 782 W/m² | - |
| 1778187307 | 31.67° C | 33% | 1095.5 hPa | 0 mm | - | 788 W/m² | - |
| 1778187003 | 31.67° C | 31% | 1095.6 hPa | 0 mm | - | 797 W/m² | - |
| 1778186699 | 31.67° C | 33% | 1095.7 hPa | 0 mm | - | 804 W/m² | - |
| 1778186397 | 31.11° C | 32% | 1095.7 hPa | 0 mm | - | 808 W/m² | - |
| 1778186095 | 31.11° C | 31% | 1095.6 hPa | 0 mm | - | 815 W/m² | - |
| 1778185791 | 31.67° C | 28% | 1095.7 hPa | 0 mm | - | 821 W/m² | - |
| 1778185487 | 31.67° C | 29% | 1095.7 hPa | 0 mm | - | 827 W/m² | - |
| 1778185183 | 31.67° C | 33% | 1095.6 hPa | 0 mm | - | 834 W/m² | - |
| 1778184878 | 31.67° C | 32% | 1095.9 hPa | 0 mm | - | 839 W/m² | - |
| 1778184576 | 31.67° C | 30% | 1095.7 hPa | 0 mm | - | 838 W/m² | - |
| 1778184271 | 31.67° C | 32% | 1095.9 hPa | 0 mm | - | 843 W/m² | - |
| 1778183967 | 31.67° C | 32% | 1096.1 hPa | 0 mm | - | 843 W/m² | - |
| 1778183665 | 31.11° C | 30% | 1096.2 hPa | 0 mm | - | 843 W/m² | - |
| 1778183362 | 31.67° C | 30% | 1096.1 hPa | 0 mm | - | 849 W/m² | - |
* Rain latest hour (hover to see other rain measurements)
** Current wind speed in m/s (hover to see current wind gust speed)